owner,sensor,date,latitude,longitude,vertical_datum,wind_speed,wind_to_direction,wind_speed_of_gust,qcFlag 
WAVCIS,ioos:station:WAVCIS:CSI03:3,2013-07-01T00:00:00Z,29.4412,-92.0613,10.0,6.462,326.0,,'11111222,11111222,99999999' 
WAVCIS,ioos:station:WAVCIS:CSI03:3,2013-07-01T01:00:00Z,29.4412,-92.0613,10.0,5.146,338.0,,'11111222,11111222,99999999' 
WAVCIS,ioos:station:WAVCIS:CSI03:3,2013-07-01T02:00:00Z,29.4412,-92.0613,10.0,3.242,357.0,,'11111222,11111222,99999999' 
WAVCIS,ioos:station:WAVCIS:CSI03:3,2013-07-01T03:00:00Z,29.4412,-92.0613,10.0,4.393,33.0,,'11111222,11111222,99999999' 
WAVCIS,ioos:station:WAVCIS:CSI03:3,2013-07-01T04:00:00Z,29.4412,-92.0613,10.0,4.602,45.0,,'11111222,11111222,99999999' 
WAVCIS,ioos:station:WAVCIS:CSI03:3,2013-07-01T05:00:00Z,29.4412,-92.0613,10.0,4.96,40.0,,'11111222,11111222,99999999' 
WAVCIS,ioos:station:WAVCIS:CSI03:3,2013-07-01T06:00:00Z,29.4412,-92.0613,10.0,6.8,49.0,,'11111222,11111222,99999999' 
WAVCIS,ioos:station:WAVCIS:CSI03:3,2013-07-01T07:00:00Z,29.4412,-92.0613,10.0,6.165,48.0,,'11111222,11111222,99999999' 
WAVCIS,ioos:station:WAVCIS:CSI03:3,2013-07-01T08:00:00Z,29.4412,-92.0613,10.0,5.499,43.0,,'11111222,11111222,99999999' 
WAVCIS,ioos:station:WAVCIS:CSI03:3,2013-07-01T09:00:00Z,29.4412,-92.0613,10.0,6.038,48.0,,'11111222,11111222,99999999' 
WAVCIS,ioos:station:WAVCIS:CSI03:3,2013-07-01T10:00:00Z,29.4412,-92.0613,10.0,5.662,58.0,,'11111222,11111222,99999999' 
WAVCIS,ioos:station:WAVCIS:CSI03:3,2013-07-01T11:00:00Z,29.4412,-92.0613,10.0,5.397,56.0,,'11111222,11111222,99999999' 
WAVCIS,ioos:station:WAVCIS:CSI03:3,2013-07-01T12:00:00Z,29.4412,-92.0613,10.0,5.705,45.0,,'11111222,11111222,99999999' 
WAVCIS,ioos:station:WAVCIS:CSI03:3,2013-07-01T13:00:00Z,29.4412,-92.0613,10.0,4.967,45.0,,'11111222,11111222,99999999' 
WAVCIS,ioos:station:WAVCIS:CSI03:3,2013-07-01T14:00:00Z,29.4412,-92.0613,10.0,4.928,49.0,,'11111222,11111222,99999999' 
WAVCIS,ioos:station:WAVCIS:CSI03:3,2013-07-01T15:00:00Z,29.4412,-92.0613,10.0,3.568,49.0,,'11111222,11111222,99999999' 
WAVCIS,ioos:station:WAVCIS:CSI03:3,2013-07-01T16:00:00Z,29.4412,-92.0613,10.0,2.162,35.0,,'11111222,11111222,99999999' 
WAVCIS,ioos:station:WAVCIS:CSI03:3,2013-07-01T17:00:00Z,29.4412,-92.0613,10.0,2.761,14.0,,'11111222,11111222,99999999' 
WAVCIS,ioos:station:WAVCIS:CSI03:3,2013-07-01T18:00:00Z,29.4412,-92.0613,10.0,2.607,39.0,,'11111222,11111222,99999999' 
WAVCIS,ioos:station:WAVCIS:CSI03:3,2013-07-01T19:00:00Z,29.4412,-92.0613,10.0,2.953,47.0,,'11111222,11111222,99999999' 
WAVCIS,ioos:station:WAVCIS:CSI03:3,2013-07-01T20:00:00Z,29.4412,-92.0613,10.0,2.568,37.0,,'11111222,11111222,99999999' 
WAVCIS,ioos:station:WAVCIS:CSI03:3,2013-07-01T23:00:00Z,29.4412,-92.0613,10.0,3.779,2.0,,'11111222,11111222,99999999' 
WAVCIS,ioos:station:WAVCIS:CSI03:3,2013-07-02T00:00:00Z,29.4412,-92.0613,10.0,3.069,359.0,,'11111222,11111222,99999999' 
WAVCIS,ioos:station:WAVCIS:CSI03:3,2013-07-02T01:00:00Z,29.4412,-92.0613,10.0,3.162,3.0,,'11111222,11111222,99999999' 
WAVCIS,ioos:station:WAVCIS:CSI03:3,2013-07-02T02:00:00Z,29.4412,-92.0613,10.0,3.18,0.0,,'11111222,11111222,99999999' 
WAVCIS,ioos:station:WAVCIS:CSI03:3,2013-07-02T03:00:00Z,29.4412,-92.0613,10.0,3.355,54.0,,'11111222,11111222,99999999' 
WAVCIS,ioos:station:WAVCIS:CSI03:3,2013-07-02T04:00:00Z,29.4412,-92.0613,10.0,3.217,50.0,,'11111222,11111222,99999999' 
WAVCIS,ioos:station:WAVCIS:CSI03:3,2013-07-02T05:00:00Z,29.4412,-92.0613,10.0,3.468,51.0,,'11111222,11111222,99999999' 
WAVCIS,ioos:station:WAVCIS:CSI03:3,2013-07-02T06:00:00Z,29.4412,-92.0613,10.0,3.912,44.0,,'11111222,11111222,99999999' 
WAVCIS,ioos:station:WAVCIS:CSI03:3,2013-07-02T07:00:00Z,29.4412,-92.0613,10.0,3.463,35.0,,'11111222,11111222,99999999' 
WAVCIS,ioos:station:WAVCIS:CSI03:3,2013-07-02T08:00:00Z,29.4412,-92.0613,10.0,4.943,49.0,,'11111222,11111222,99999999' 
WAVCIS,ioos:station:WAVCIS:CSI03:3,2013-07-02T09:00:00Z,29.4412,-92.0613,10.0,4.789,42.0,,'11111222,11111222,99999999' 
WAVCIS,ioos:station:WAVCIS:CSI03:3,2013-07-02T10:00:00Z,29.4412,-92.0613,10.0,3.905,39.0,,'11111222,11111222,99999999' 
WAVCIS,ioos:station:WAVCIS:CSI03:3,2013-07-02T11:00:00Z,29.4412,-92.0613,10.0,6.02,46.0,,'11111222,11111222,99999999' 
WAVCIS,ioos:station:WAVCIS:CSI03:3,2013-07-02T12:00:00Z,29.4412,-92.0613,10.0,5.508,52.0,,'11111222,11111222,99999999' 
WAVCIS,ioos:station:WAVCIS:CSI03:3,2013-07-02T13:00:00Z,29.4412,-92.0613,10.0,5.234,48.0,,'11111222,11111222,99999999' 
WAVCIS,ioos:station:WAVCIS:CSI03:3,2013-07-02T14:00:00Z,29.4412,-92.0613,10.0,5.044,51.0,,'11111222,11111222,99999999' 
WAVCIS,ioos:station:WAVCIS:CSI03:3,2013-07-02T15:00:00Z,29.4412,-92.0613,10.0,4.447,54.0,,'11111222,11111222,99999999' 
WAVCIS,ioos:station:WAVCIS:CSI03:3,2013-07-02T16:00:00Z,29.4412,-92.0613,10.0,3.324,45.0,,'11111222,11111222,99999999' 
WAVCIS,ioos:station:WAVCIS:CSI03:3,2013-07-02T17:00:00Z,29.4412,-92.0613,10.0,3.399,20.0,,'11111222,11111222,99999999' 
WAVCIS,ioos:station:WAVCIS:CSI03:3,2013-07-02T18:00:00Z,29.4412,-92.0613,10.0,1.662,18.0,,'11111222,11111222,99999999' 
WAVCIS,ioos:station:WAVCIS:CSI03:3,2013-07-02T19:00:00Z,29.4412,-92.0613,10.0,1.367,22.0,,'11111222,11111222,99999999' 
WAVCIS,ioos:station:WAVCIS:CSI03:3,2013-07-02T20:00:00Z,29.4412,-92.0613,10.0,1.98,108.0,,'11111222,11111222,99999999' 
WAVCIS,ioos:station:WAVCIS:CSI03:3,2013-07-02T21:00:00Z,29.4412,-92.0613,10.0,2.119,116.0,,'11111222,11111222,99999999' 
WAVCIS,ioos:station:WAVCIS:CSI03:3,2013-07-02T22:00:00Z,29.4412,-92.0613,10.0,1.259,138.0,,'11111222,11111222,99999999' 
WAVCIS,ioos:station:WAVCIS:CSI03:3,2013-07-02T23:00:00Z,29.4412,-92.0613,10.0,1.168,178.0,,'11111222,11111222,99999999' 
WAVCIS,ioos:station:WAVCIS:CSI03:3,2013-07-03T00:00:00Z,29.4412,-92.0613,10.0,0.825,167.0,,'11111222,11111222,99999999' 
WAVCIS,ioos:station:WAVCIS:CSI03:3,2013-07-03T01:00:00Z,29.4412,-92.0613,10.0,0.783,175.0,,'11111222,11111222,99999999' 
WAVCIS,ioos:station:WAVCIS:CSI03:3,2013-07-03T02:00:00Z,29.4412,-92.0613,10.0,1.058,162.0,,'11111222,11111222,99999999' 
WAVCIS,ioos:station:WAVCIS:CSI03:3,2013-07-03T03:00:00Z,29.4412,-92.0613,10.0,0.516,0.0,,'11111222,11111222,99999999' 
WAVCIS,ioos:station:WAVCIS:CSI03:3,2013-07-03T04:00:00Z,29.4412,-92.0613,10.0,4.802,105.0,,'11111222,11111222,99999999' 
WAVCIS,ioos:station:WAVCIS:CSI03:3,2013-07-03T05:00:00Z,29.4412,-92.0613,10.0,3.003,89.0,,'11111222,11111222,99999999' 
WAVCIS,ioos:station:WAVCIS:CSI03:3,2013-07-03T06:00:00Z,29.4412,-92.0613,10.0,2.878,52.0,,'11111222,11111222,99999999' 
WAVCIS,ioos:station:WAVCIS:CSI03:3,2013-07-03T07:00:00Z,29.4412,-92.0613,10.0,2.895,57.0,,'11111222,11111222,99999999' 
WAVCIS,ioos:station:WAVCIS:CSI03:3,2013-07-03T08:00:00Z,29.4412,-92.0613,10.0,2.732,33.0,,'11111222,11111222,99999999' 
WAVCIS,ioos:station:WAVCIS:CSI03:3,2013-07-03T09:00:00Z,29.4412,-92.0613,10.0,3.023,11.0,,'11111222,11111222,99999999' 
WAVCIS,ioos:station:WAVCIS:CSI03:3,2013-07-03T10:00:00Z,29.4412,-92.0613,10.0,3.819,26.0,,'11111222,11111222,99999999' 
WAVCIS,ioos:station:WAVCIS:CSI03:3,2013-07-03T11:00:00Z,29.4412,-92.0613,10.0,4.328,40.0,,'11111222,11111222,99999999' 
WAVCIS,ioos:station:WAVCIS:CSI03:3,2013-07-03T12:00:00Z,29.4412,-92.0613,10.0,4.686,42.0,,'11111222,11111222,99999999' 
WAVCIS,ioos:station:WAVCIS:CSI03:3,2013-07-03T13:00:00Z,29.4412,-92.0613,10.0,6.088,50.0,,'11111222,11111222,99999999' 
WAVCIS,ioos:station:WAVCIS:CSI03:3,2013-07-03T14:00:00Z,29.4412,-92.0613,10.0,6.021,50.0,,'11111222,11111222,99999999' 
WAVCIS,ioos:station:WAVCIS:CSI03:3,2013-07-03T15:00:00Z,29.4412,-92.0613,10.0,6.094,63.0,,'11111222,11111222,99999999' 
WAVCIS,ioos:station:WAVCIS:CSI03:3,2013-07-03T16:00:00Z,29.4412,-92.0613,10.0,4.666,66.0,,'11111222,11111222,99999999' 
WAVCIS,ioos:station:WAVCIS:CSI03:3,2013-07-03T17:00:00Z,29.4412,-92.0613,10.0,4.34,115.0,,'11111222,11111222,99999999' 
WAVCIS,ioos:station:WAVCIS:CSI03:3,2013-07-03T18:00:00Z,29.4412,-92.0613,10.0,3.699,128.0,,'11111222,11111222,99999999' 
WAVCIS,ioos:station:WAVCIS:CSI03:3,2013-07-03T19:00:00Z,29.4412,-92.0613,10.0,2.603,136.0,,'11111222,11111222,99999999' 
WAVCIS,ioos:station:WAVCIS:CSI03:3,2013-07-03T20:00:00Z,29.4412,-92.0613,10.0,2.135,41.0,,'11111222,11111222,99999999' 
WAVCIS,ioos:station:WAVCIS:CSI03:3,2013-07-03T21:00:00Z,29.4412,-92.0613,10.0,1.2,168.0,,'11111222,11111222,99999999' 
WAVCIS,ioos:station:WAVCIS:CSI03:3,2013-07-03T22:00:00Z,29.4412,-92.0613,10.0,0.605,105.0,,'11111222,11111222,99999999' 
WAVCIS,ioos:station:WAVCIS:CSI03:3,2013-07-03T23:00:00Z,29.4412,-92.0613,10.0,1.986,37.0,,'11111222,11111222,99999999' 
WAVCIS,ioos:station:WAVCIS:CSI03:3,2013-07-04T00:00:00Z,29.4412,-92.0613,10.0,8.36,77.0,,'11111222,11111222,99999999' 
WAVCIS,ioos:station:WAVCIS:CSI03:3,2013-07-04T01:00:00Z,29.4412,-92.0613,10.0,8.6,116.0,,'11111222,11111222,99999999' 
WAVCIS,ioos:station:WAVCIS:CSI03:3,2013-07-04T02:00:00Z,29.4412,-92.0613,10.0,7.56,86.0,,'11111222,11111222,99999999' 
WAVCIS,ioos:station:WAVCIS:CSI03:3,2013-07-04T03:00:00Z,29.4412,-92.0613,10.0,7.23,95.0,,'11111222,11111222,99999999' 
WAVCIS,ioos:station:WAVCIS:CSI03:3,2013-07-04T04:00:00Z,29.4412,-92.0613,10.0,6.55,90.0,,'11111222,11111222,99999999' 
WAVCIS,ioos:station:WAVCIS:CSI03:3,2013-07-04T05:00:00Z,29.4412,-92.0613,10.0,6.098,81.0,,'11111222,11111222,99999999' 
WAVCIS,ioos:station:WAVCIS:CSI03:3,2013-07-04T06:00:00Z,29.4412,-92.0613,10.0,6.166,66.0,,'11111222,11111222,99999999' 
WAVCIS,ioos:station:WAVCIS:CSI03:3,2013-07-04T07:00:00Z,29.4412,-92.0613,10.0,5.961,53.0,,'11111222,11111222,99999999' 
WAVCIS,ioos:station:WAVCIS:CSI03:3,2013-07-04T08:00:00Z,29.4412,-92.0613,10.0,5.289,67.0,,'11111222,11111222,99999999' 
WAVCIS,ioos:station:WAVCIS:CSI03:3,2013-07-04T09:00:00Z,29.4412,-92.0613,10.0,5.003,86.0,,'11111222,11111222,99999999' 
WAVCIS,ioos:station:WAVCIS:CSI03:3,2013-07-04T10:00:00Z,29.4412,-92.0613,10.0,4.539,70.0,,'11111222,11111222,99999999' 
WAVCIS,ioos:station:WAVCIS:CSI03:3,2013-07-04T11:00:00Z,29.4412,-92.0613,10.0,4.686,77.0,,'11111222,11111222,99999999' 
WAVCIS,ioos:station:WAVCIS:CSI03:3,2013-07-04T12:00:00Z,29.4412,-92.0613,10.0,4.606,57.0,,'11111222,11111222,99999999' 
WAVCIS,ioos:station:WAVCIS:CSI03:3,2013-07-04T13:00:00Z,29.4412,-92.0613,10.0,3.91,41.0,,'11111222,11111222,99999999' 
WAVCIS,ioos:station:WAVCIS:CSI03:3,2013-07-04T14:00:00Z,29.4412,-92.0613,10.0,2.805,33.0,,'11111222,11111222,99999999' 
WAVCIS,ioos:station:WAVCIS:CSI03:3,2013-07-04T15:00:00Z,29.4412,-92.0613,10.0,2.968,38.0,,'11111222,11111222,99999999' 
WAVCIS,ioos:station:WAVCIS:CSI03:3,2013-07-04T16:00:00Z,29.4412,-92.0613,10.0,2.213,48.0,,'11111222,11111222,99999999' 
WAVCIS,ioos:station:WAVCIS:CSI03:3,2013-07-04T17:00:00Z,29.4412,-92.0613,10.0,4.108,15.0,,'11111222,11111222,99999999' 
WAVCIS,ioos:station:WAVCIS:CSI03:3,2013-07-04T18:00:00Z,29.4412,-92.0613,10.0,3.101,18.0,,'11111222,11111222,99999999' 
WAVCIS,ioos:station:WAVCIS:CSI03:3,2013-07-04T19:00:00Z,29.4412,-92.0613,10.0,2.65,27.0,,'11111222,11111222,99999999' 
WAVCIS,ioos:station:WAVCIS:CSI03:3,2013-07-04T20:00:00Z,29.4412,-92.0613,10.0,3.15,51.0,,'11111222,11111222,99999999' 
WAVCIS,ioos:station:WAVCIS:CSI03:3,2013-07-04T21:00:00Z,29.4412,-92.0613,10.0,2.058,96.0,,'11111222,11111222,99999999' 
WAVCIS,ioos:station:WAVCIS:CSI03:3,2013-07-04T22:00:00Z,29.4412,-92.0613,10.0,2.5,77.0,,'11111222,11111222,99999999' 
WAVCIS,ioos:station:WAVCIS:CSI03:3,2013-07-04T23:00:00Z,29.4412,-92.0613,10.0,2.654,122.0,,'11111222,11111222,99999999' 
WAVCIS,ioos:station:WAVCIS:CSI03:3,2013-07-05T00:00:00Z,29.4412,-92.0613,10.0,2.309,135.0,,'11111222,11111222,99999999' 
WAVCIS,ioos:station:WAVCIS:CSI03:3,2013-07-05T01:00:00Z,29.4412,-92.0613,10.0,5.517,107.0,,'11111222,11111222,99999999' 
WAVCIS,ioos:station:WAVCIS:CSI03:3,2013-07-05T02:00:00Z,29.4412,-92.0613,10.0,6.438,117.0,,'11111222,11111222,99999999' 
WAVCIS,ioos:station:WAVCIS:CSI03:3,2013-07-05T03:00:00Z,29.4412,-92.0613,10.0,4.215,171.0,,'11111222,11111222,99999999' 
WAVCIS,ioos:station:WAVCIS:CSI03:3,2013-07-05T04:00:00Z,29.4412,-92.0613,10.0,4.235,143.0,,'11111222,11111222,99999999' 
WAVCIS,ioos:station:WAVCIS:CSI03:3,2013-07-05T05:00:00Z,29.4412,-92.0613,10.0,4.207,110.0,,'11111222,11111222,99999999' 
WAVCIS,ioos:station:WAVCIS:CSI03:3,2013-07-05T06:00:00Z,29.4412,-92.0613,10.0,2.922,119.0,,'11111222,11111222,99999999' 
WAVCIS,ioos:station:WAVCIS:CSI03:3,2013-07-05T07:00:00Z,29.4412,-92.0613,10.0,3.698,179.0,,'11111222,11111222,99999999' 
WAVCIS,ioos:station:WAVCIS:CSI03:3,2013-07-05T08:00:00Z,29.4412,-92.0613,10.0,2.502,192.0,,'11111222,11111222,99999999' 
WAVCIS,ioos:station:WAVCIS:CSI03:3,2013-07-05T09:00:00Z,29.4412,-92.0613,10.0,2.078,185.0,,'11111222,11111222,99999999' 
WAVCIS,ioos:station:WAVCIS:CSI03:3,2013-07-05T10:00:00Z,29.4412,-92.0613,10.0,1.299,179.0,,'11111222,11111222,99999999' 
WAVCIS,ioos:station:WAVCIS:CSI03:3,2013-07-05T11:00:00Z,29.4412,-92.0613,10.0,1.62,151.0,,'11111222,11111222,99999999' 
WAVCIS,ioos:station:WAVCIS:CSI03:3,2013-07-05T12:00:00Z,29.4412,-92.0613,10.0,2.211,99.0,,'11111222,11111222,99999999' 
WAVCIS,ioos:station:WAVCIS:CSI03:3,2013-07-05T13:00:00Z,29.4412,-92.0613,10.0,3.632,59.0,,'11111222,11111222,99999999' 
WAVCIS,ioos:station:WAVCIS:CSI03:3,2013-07-05T14:00:00Z,29.4412,-92.0613,10.0,1.98,59.0,,'11111222,11111222,99999999' 
WAVCIS,ioos:station:WAVCIS:CSI03:3,2013-07-05T15:00:00Z,29.4412,-92.0613,10.0,4.728,73.0,,'11111222,11111222,99999999' 
WAVCIS,ioos:station:WAVCIS:CSI03:3,2013-07-05T16:00:00Z,29.4412,-92.0613,10.0,5.713,86.0,,'11111222,11111222,99999999' 
WAVCIS,ioos:station:WAVCIS:CSI03:3,2013-07-05T17:00:00Z,29.4412,-92.0613,10.0,6.942,109.0,,'11111222,11111222,99999999' 
WAVCIS,ioos:station:WAVCIS:CSI03:3,2013-07-05T18:00:00Z,29.4412,-92.0613,10.0,8.63,128.0,,'11111222,11111222,99999999' 
WAVCIS,ioos:station:WAVCIS:CSI03:3,2013-07-05T19:00:00Z,29.4412,-92.0613,10.0,9.37,124.0,,'11111222,11111222,99999999' 
WAVCIS,ioos:station:WAVCIS:CSI03:3,2013-07-05T20:00:00Z,29.4412,-92.0613,10.0,10.91,134.0,,'11111222,11111222,99999999' 
WAVCIS,ioos:station:WAVCIS:CSI03:3,2013-07-05T21:00:00Z,29.4412,-92.0613,10.0,10.65,135.0,,'11111222,11111222,99999999' 
WAVCIS,ioos:station:WAVCIS:CSI03:3,2013-07-05T22:00:00Z,29.4412,-92.0613,10.0,8.57,142.0,,'11111222,11111222,99999999' 
WAVCIS,ioos:station:WAVCIS:CSI03:3,2013-07-05T23:00:00Z,29.4412,-92.0613,10.0,8.13,126.0,,'11111222,11111222,99999999' 
WAVCIS,ioos:station:WAVCIS:CSI03:3,2013-07-06T00:00:00Z,29.4412,-92.0613,10.0,8.54,145.0,,'11111222,11111222,99999999' 
WAVCIS,ioos:station:WAVCIS:CSI03:3,2013-07-06T01:00:00Z,29.4412,-92.0613,10.0,8.31,128.0,,'11111222,11111222,99999999' 
WAVCIS,ioos:station:WAVCIS:CSI03:3,2013-07-06T02:00:00Z,29.4412,-92.0613,10.0,6.708,129.0,,'11111222,11111222,99999999' 
WAVCIS,ioos:station:WAVCIS:CSI03:3,2013-07-06T03:00:00Z,29.4412,-92.0613,10.0,7.43,139.0,,'11111222,11111222,99999999' 
WAVCIS,ioos:station:WAVCIS:CSI03:3,2013-07-06T04:00:00Z,29.4412,-92.0613,10.0,7.11,126.0,,'11111222,11111222,99999999' 
WAVCIS,ioos:station:WAVCIS:CSI03:3,2013-07-06T05:00:00Z,29.4412,-92.0613,10.0,6.819,151.0,,'11111222,11111222,99999999' 
WAVCIS,ioos:station:WAVCIS:CSI03:3,2013-07-06T06:00:00Z,29.4412,-92.0613,10.0,6.243,141.0,,'11111222,11111222,99999999' 
WAVCIS,ioos:station:WAVCIS:CSI03:3,2013-07-06T07:00:00Z,29.4412,-92.0613,10.0,5.197,144.0,,'11111222,11111222,99999999' 
WAVCIS,ioos:station:WAVCIS:CSI03:3,2013-07-06T08:00:00Z,29.4412,-92.0613,10.0,8.57,162.0,,'11111222,11111222,99999999' 
WAVCIS,ioos:station:WAVCIS:CSI03:3,2013-07-06T09:00:00Z,29.4412,-92.0613,10.0,4.388,159.0,,'11111222,11111222,99999999' 
WAVCIS,ioos:station:WAVCIS:CSI03:3,2013-07-06T10:00:00Z,29.4412,-92.0613,10.0,6.507,162.0,,'11111222,11111222,99999999' 
WAVCIS,ioos:station:WAVCIS:CSI03:3,2013-07-06T11:00:00Z,29.4412,-92.0613,10.0,4.731,173.0,,'11111222,11111222,99999999' 
WAVCIS,ioos:station:WAVCIS:CSI03:3,2013-07-06T12:00:00Z,29.4412,-92.0613,10.0,4.799,175.0,,'11111222,11111222,99999999' 
WAVCIS,ioos:station:WAVCIS:CSI03:3,2013-07-06T13:00:00Z,29.4412,-92.0613,10.0,4.527,156.0,,'11111222,11111222,99999999' 
WAVCIS,ioos:station:WAVCIS:CSI03:3,2013-07-06T14:00:00Z,29.4412,-92.0613,10.0,4.376,144.0,,'11111222,11111222,99999999' 
WAVCIS,ioos:station:WAVCIS:CSI03:3,2013-07-06T15:00:00Z,29.4412,-92.0613,10.0,4.845,128.0,,'11111222,11111222,99999999' 
WAVCIS,ioos:station:WAVCIS:CSI03:3,2013-07-06T16:00:00Z,29.4412,-92.0613,10.0,4.697,129.0,,'11111222,11111222,99999999' 
WAVCIS,ioos:station:WAVCIS:CSI03:3,2013-07-06T17:00:00Z,29.4412,-92.0613,10.0,5.685,137.0,,'11111222,11111222,99999999' 
WAVCIS,ioos:station:WAVCIS:CSI03:3,2013-07-06T18:00:00Z,29.4412,-92.0613,10.0,6.689,126.0,,'11111222,11111222,99999999' 
WAVCIS,ioos:station:WAVCIS:CSI03:3,2013-07-06T19:00:00Z,29.4412,-92.0613,10.0,6.639,133.0,,'11111222,11111222,99999999' 
WAVCIS,ioos:station:WAVCIS:CSI03:3,2013-07-06T20:00:00Z,29.4412,-92.0613,10.0,5.521,139.0,,'11111222,11111222,99999999' 
WAVCIS,ioos:station:WAVCIS:CSI03:3,2013-07-06T21:00:00Z,29.4412,-92.0613,10.0,7.63,150.0,,'11111222,11111222,99999999' 
WAVCIS,ioos:station:WAVCIS:CSI03:3,2013-07-06T22:00:00Z,29.4412,-92.0613,10.0,6.601,128.0,,'11111222,11111222,99999999' 
WAVCIS,ioos:station:WAVCIS:CSI03:3,2013-07-06T23:00:00Z,29.4412,-92.0613,10.0,6.236,142.0,,'11111222,11111222,99999999' 
WAVCIS,ioos:station:WAVCIS:CSI03:3,2013-07-07T00:00:00Z,29.4412,-92.0613,10.0,7.04,161.0,,'11111222,11111222,99999999' 
WAVCIS,ioos:station:WAVCIS:CSI03:3,2013-07-07T01:00:00Z,29.4412,-92.0613,10.0,3.87,188.0,,'11111222,11111222,99999999' 
WAVCIS,ioos:station:WAVCIS:CSI03:3,2013-07-07T02:00:00Z,29.4412,-92.0613,10.0,3.436,199.0,,'11111222,11111222,99999999' 
WAVCIS,ioos:station:WAVCIS:CSI03:3,2013-07-07T03:00:00Z,29.4412,-92.0613,10.0,4.131,177.0,,'11111222,11111222,99999999' 
WAVCIS,ioos:station:WAVCIS:CSI03:3,2013-07-07T04:00:00Z,29.4412,-92.0613,10.0,4.087,168.0,,'11111222,11111222,99999999' 
WAVCIS,ioos:station:WAVCIS:CSI03:3,2013-07-07T05:00:00Z,29.4412,-92.0613,10.0,4.787,151.0,,'11111222,11111222,99999999' 
WAVCIS,ioos:station:WAVCIS:CSI03:3,2013-07-07T06:00:00Z,29.4412,-92.0613,10.0,4.716,156.0,,'11111222,11111222,99999999' 
WAVCIS,ioos:station:WAVCIS:CSI03:3,2013-07-07T07:00:00Z,29.4412,-92.0613,10.0,6.27,164.0,,'11111222,11111222,99999999' 
WAVCIS,ioos:station:WAVCIS:CSI03:3,2013-07-07T08:00:00Z,29.4412,-92.0613,10.0,6.911,171.0,,'11111222,11111222,99999999' 
WAVCIS,ioos:station:WAVCIS:CSI03:3,2013-07-07T09:00:00Z,29.4412,-92.0613,10.0,3.949,185.0,,'11111222,11111222,99999999' 
WAVCIS,ioos:station:WAVCIS:CSI03:3,2013-07-07T10:00:00Z,29.4412,-92.0613,10.0,2.909,192.0,,'11111222,11111222,99999999' 
WAVCIS,ioos:station:WAVCIS:CSI03:3,2013-07-07T11:00:00Z,29.4412,-92.0613,10.0,4.225,197.0,,'11111222,11111222,99999999' 
WAVCIS,ioos:station:WAVCIS:CSI03:3,2013-07-07T12:00:00Z,29.4412,-92.0613,10.0,3.209,193.0,,'11111222,11111222,99999999' 
WAVCIS,ioos:station:WAVCIS:CSI03:3,2013-07-07T13:00:00Z,29.4412,-92.0613,10.0,4.326,180.0,,'11111222,11111222,99999999' 
WAVCIS,ioos:station:WAVCIS:CSI03:3,2013-07-07T14:00:00Z,29.4412,-92.0613,10.0,3.685,160.0,,'11111222,11111222,99999999' 
WAVCIS,ioos:station:WAVCIS:CSI03:3,2013-07-07T15:00:00Z,29.4412,-92.0613,10.0,3.656,151.0,,'11111222,11111222,99999999' 
WAVCIS,ioos:station:WAVCIS:CSI03:3,2013-07-07T16:00:00Z,29.4412,-92.0613,10.0,5.227,161.0,,'11111222,11111222,99999999' 
WAVCIS,ioos:station:WAVCIS:CSI03:3,2013-07-07T17:00:00Z,29.4412,-92.0613,10.0,5.433,163.0,,'11111222,11111222,99999999' 
WAVCIS,ioos:station:WAVCIS:CSI03:3,2013-07-07T18:00:00Z,29.4412,-92.0613,10.0,5.588,165.0,,'11111222,11111222,99999999' 
WAVCIS,ioos:station:WAVCIS:CSI03:3,2013-07-07T19:00:00Z,29.4412,-92.0613,10.0,4.74,253.0,,'11111222,11111222,99999999' 
WAVCIS,ioos:station:WAVCIS:CSI03:3,2013-07-07T20:00:00Z,29.4412,-92.0613,10.0,5.844,254.0,,'11111222,11111222,99999999' 
WAVCIS,ioos:station:WAVCIS:CSI03:3,2013-07-07T21:00:00Z,29.4412,-92.0613,10.0,3.486,251.0,,'11111222,11111222,99999999' 
WAVCIS,ioos:station:WAVCIS:CSI03:3,2013-07-07T22:00:00Z,29.4412,-92.0613,10.0,3.456,250.0,,'11111222,11111222,99999999' 
WAVCIS,ioos:station:WAVCIS:CSI03:3,2013-07-07T23:00:00Z,29.4412,-92.0613,10.0,0.951,190.0,,'11111222,11111222,99999999' 
WAVCIS,ioos:station:WAVCIS:CSI03:3,2013-07-08T00:00:00Z,29.4412,-92.0613,10.0,0.384,213.0,,'11111222,11111222,99999999' 
WAVCIS,ioos:station:WAVCIS:CSI03:3,2013-07-08T01:00:00Z,29.4412,-92.0613,10.0,0.231,30.0,,'11111222,11111222,99999999' 
WAVCIS,ioos:station:WAVCIS:CSI03:3,2013-07-08T02:00:00Z,29.4412,-92.0613,10.0,2.105,103.0,,'11111222,11111222,99999999' 
WAVCIS,ioos:station:WAVCIS:CSI03:3,2013-07-08T03:00:00Z,29.4412,-92.0613,10.0,6.517,131.0,,'11111222,11111222,99999999' 
WAVCIS,ioos:station:WAVCIS:CSI03:3,2013-07-08T04:00:00Z,29.4412,-92.0613,10.0,5.834,123.0,,'11111222,11111222,99999999' 
WAVCIS,ioos:station:WAVCIS:CSI03:3,2013-07-08T05:00:00Z,29.4412,-92.0613,10.0,6.288,103.0,,'11111222,11111222,99999999' 
WAVCIS,ioos:station:WAVCIS:CSI03:3,2013-07-08T06:00:00Z,29.4412,-92.0613,10.0,5.694,127.0,,'11111222,11111222,99999999' 
WAVCIS,ioos:station:WAVCIS:CSI03:3,2013-07-08T07:00:00Z,29.4412,-92.0613,10.0,5.679,152.0,,'11111222,11111222,99999999' 
WAVCIS,ioos:station:WAVCIS:CSI03:3,2013-07-08T08:00:00Z,29.4412,-92.0613,10.0,5.225,113.0,,'11111222,11111222,99999999' 
WAVCIS,ioos:station:WAVCIS:CSI03:3,2013-07-08T09:00:00Z,29.4412,-92.0613,10.0,5.461,127.0,,'11111222,11111222,99999999' 
WAVCIS,ioos:station:WAVCIS:CSI03:3,2013-07-08T10:00:00Z,29.4412,-92.0613,10.0,4.941,127.0,,'11111222,11111222,99999999' 
WAVCIS,ioos:station:WAVCIS:CSI03:3,2013-07-08T11:00:00Z,29.4412,-92.0613,10.0,4.255,135.0,,'11111222,11111222,99999999' 
WAVCIS,ioos:station:WAVCIS:CSI03:3,2013-07-08T12:00:00Z,29.4412,-92.0613,10.0,4.78,142.0,,'11111222,11111222,99999999' 
WAVCIS,ioos:station:WAVCIS:CSI03:3,2013-07-08T13:00:00Z,29.4412,-92.0613,10.0,4.41,130.0,,'11111222,11111222,99999999' 
WAVCIS,ioos:station:WAVCIS:CSI03:3,2013-07-08T14:00:00Z,29.4412,-92.0613,10.0,4.108,122.0,,'11111222,11111222,99999999' 
WAVCIS,ioos:station:WAVCIS:CSI03:3,2013-07-08T15:00:00Z,29.4412,-92.0613,10.0,5.006,109.0,,'11111222,11111222,99999999' 
WAVCIS,ioos:station:WAVCIS:CSI03:3,2013-07-08T16:00:00Z,29.4412,-92.0613,10.0,4.626,119.0,,'11111222,11111222,99999999' 
WAVCIS,ioos:station:WAVCIS:CSI03:3,2013-07-08T17:00:00Z,29.4412,-92.0613,10.0,5.124,132.0,,'11111222,11111222,99999999' 
WAVCIS,ioos:station:WAVCIS:CSI03:3,2013-07-08T18:00:00Z,29.4412,-92.0613,10.0,4.85,135.0,,'11111222,11111222,99999999' 
WAVCIS,ioos:station:WAVCIS:CSI03:3,2013-07-08T19:00:00Z,29.4412,-92.0613,10.0,4.842,145.0,,'11111222,11111222,99999999' 
WAVCIS,ioos:station:WAVCIS:CSI03:3,2013-07-08T20:00:00Z,29.4412,-92.0613,10.0,4.511,140.0,,'11111222,11111222,99999999' 
WAVCIS,ioos:station:WAVCIS:CSI03:3,2013-07-08T21:00:00Z,29.4412,-92.0613,10.0,4.445,148.0,,'11111222,11111222,99999999' 
WAVCIS,ioos:station:WAVCIS:CSI03:3,2013-07-08T22:00:00Z,29.4412,-92.0613,10.0,5.242,153.0,,'11111222,11111222,99999999' 
WAVCIS,ioos:station:WAVCIS:CSI03:3,2013-07-08T23:00:00Z,29.4412,-92.0613,10.0,5.402,154.0,,'11111222,11111222,99999999' 
WAVCIS,ioos:station:WAVCIS:CSI03:3,2013-07-09T00:00:00Z,29.4412,-92.0613,10.0,5.318,141.0,,'11111222,11111222,99999999' 
WAVCIS,ioos:station:WAVCIS:CSI03:3,2013-07-09T01:00:00Z,29.4412,-92.0613,10.0,5.92,150.0,,'11111222,11111222,99999999' 
WAVCIS,ioos:station:WAVCIS:CSI03:3,2013-07-09T02:00:00Z,29.4412,-92.0613,10.0,6.069,144.0,,'11111222,11111222,99999999' 
WAVCIS,ioos:station:WAVCIS:CSI03:3,2013-07-09T03:00:00Z,29.4412,-92.0613,10.0,5.322,161.0,,'11111222,11111222,99999999' 
WAVCIS,ioos:station:WAVCIS:CSI03:3,2013-07-09T04:00:00Z,29.4412,-92.0613,10.0,6.098,154.0,,'11111222,11111222,99999999' 
WAVCIS,ioos:station:WAVCIS:CSI03:3,2013-07-09T05:00:00Z,29.4412,-92.0613,10.0,5.853,147.0,,'11111222,11111222,99999999' 
WAVCIS,ioos:station:WAVCIS:CSI03:3,2013-07-09T06:00:00Z,29.4412,-92.0613,10.0,4.895,156.0,,'11111222,11111222,99999999' 
WAVCIS,ioos:station:WAVCIS:CSI03:3,2013-07-09T07:00:00Z,29.4412,-92.0613,10.0,3.385,173.0,,'11111222,11111222,99999999' 